Middleton, WI

1:52 PM CST on February 24, 2017 (GMT -0600)
Middleton

Weather History for KC29 - October, 2012

Change the Weather History Date:

Friday, October 5, 2012

  Actual Average (KMSN) Record (KMSN)
Temperature  
Mean Temperature 44 °F -  
Max Temperature 52 °F 64 °F 86 °F (1922)
Min Temperature 35 °F 41 °F 23 °F (1980)
Degree Days  
Heating Degree Days 22    
Moisture  
Dew Point 25 °F    
Average Humidity 50    
Maximum Humidity 76    
Minimum Humidity 28    
Precipitation  
Precipitation 0.00 in - - ()
Sea Level Pressure  
Sea Level Pressure 30.09 in    
Wind  
Wind Speed 10 mph (West)    
Max Wind Speed 20 mph    
Max Gust Speed 24 mph    
Visibility 10 miles    
Events      
Averages and records for this station are not official NWS values.
T = Trace of Precipitation, MM = Missing Value Source: NWS Daily Summary

Daily Weather History Graph

Daily Weather History Graph

Search for Another Location

Airport or City:

Trip Planner

Search our weather history database for the weather conditions in past years. The results will help you decide how hot, cold, wet, or windy it might be!

Date:

Astronomy

Oct. 05, 2012 Rise Set
Actual Time 7:00 AM CDT 6:31 PM CDT
Civil Twilight 6:32 AM CDT 6:59 PM CDT
Nautical Twilight 5:59 AM CDT 7:32 PM CDT
Astronomical Twilight 5:26 AM CDT 8:05 PM CDT
Moon 9:47 PM CDT (10/5) 12:15 PM CDT (10/5)
Length of Visible Light 12h 27m
Length of Day
11h 30m
Waning Gibbous, 74% of the Moon is Illuminated
Oct 5
Waning Gibbous
Oct 8
Last Quarter
Oct 15
New
Oct 21
First Quarter
Oct 29
Full

Hourly Weather History & Observations

Time (CDT) Temp. Windchill Dew Point Humidity Pressure Visibility Wind Dir Wind Speed Gust Speed Precip Events Conditions
12:15 AM 43.9 °F 38.3 °F 29.5 °F 57% 30.12 in 10.0 mi WNW 10.4 mph - N/A   Clear
12:35 AM 43.9 °F 38.3 °F 29.1 °F 56% 30.11 in 10.0 mi WNW 10.4 mph 16.1 mph N/A   Clear
12:55 AM 43.7 °F 37.7 °F 28.8 °F 56% 30.11 in 10.0 mi WNW 11.5 mph - N/A   Clear
1:15 AM 43.3 °F 37.7 °F 28.4 °F 56% 30.11 in 10.0 mi WNW 10.4 mph - N/A   Clear
1:35 AM 42.6 °F 37.2 °F 28.4 °F 57% 30.12 in 10.0 mi WNW 9.2 mph - N/A   Clear
1:55 AM 42.4 °F 36.1 °F 28.4 °F 58% 30.14 in 10.0 mi West 11.5 mph - N/A   Clear
2:15 AM 42.1 °F 36.6 °F 28.4 °F 58% 30.13 in 10.0 mi WNW 9.2 mph 16.1 mph N/A   Clear
2:35 AM 42.1 °F 36.1 °F 28.4 °F 58% 30.13 in 10.0 mi WNW 10.4 mph - N/A   Clear
2:55 AM 41.4 °F 35.2 °F 28.4 °F 60% 30.13 in 10.0 mi West 10.4 mph - N/A   Clear
3:15 AM 40.5 °F 35.1 °F 28.4 °F 62% 30.12 in 10.0 mi WNW 8.1 mph - N/A   Clear
3:35 AM 39.2 °F 35.9 °F 28.4 °F 65% 30.12 in 10.0 mi West 4.6 mph - N/A   Clear
3:55 AM 39.2 °F 37.0 °F 28.4 °F 65% 30.13 in 10.0 mi West 3.5 mph - N/A   Clear
4:15 AM 39.0 °F 35.7 °F 28.2 °F 65% 30.13 in 10.0 mi WSW 4.6 mph - N/A   Clear
4:35 AM 38.7 °F - 28.0 °F 66% 30.13 in 10.0 mi Calm Calm - N/A   Clear
4:55 AM 37.4 °F 34.9 °F 28.0 °F 69% 30.13 in 10.0 mi West 3.5 mph - N/A   Clear
5:15 AM 36.1 °F 31.4 °F 28.0 °F 72% 30.13 in 10.0 mi WSW 5.8 mph - N/A   Clear
5:35 AM 35.8 °F 31.9 °F 28.2 °F 74% 30.12 in 10.0 mi West 4.6 mph - N/A   Clear
5:55 AM 36.3 °F 31.6 °F 28.4 °F 73% 30.12 in 10.0 mi West 5.8 mph - N/A   Clear
6:15 AM 36.1 °F 29.9 °F 29.1 °F 76% 30.12 in 10.0 mi West 8.1 mph - N/A   Clear
6:35 AM 36.7 °F 32.0 °F 29.1 °F 74% 30.13 in 10.0 mi West 5.8 mph - N/A   Clear
6:55 AM 36.1 °F 30.6 °F 29.3 °F 76% 30.13 in 10.0 mi West 6.9 mph - N/A   Clear
7:15 AM 37.0 °F 32.4 °F 29.1 °F 73% 30.14 in 10.0 mi WSW 5.8 mph - N/A   Clear
7:35 AM 37.9 °F 32.1 °F 29.7 °F 72% 30.14 in 10.0 mi West 8.1 mph - N/A   Clear
7:55 AM 39.4 °F 33.2 °F 29.8 °F 69% 30.13 in 10.0 mi West 9.2 mph - N/A   Clear
8:15 AM 40.6 °F 34.3 °F 30.0 °F 66% 30.13 in 10.0 mi West 10.4 mph - N/A   Clear
8:35 AM 41.9 °F 35.4 °F 30.2 °F 63% 30.13 in 10.0 mi West 11.5 mph - N/A   Clear
8:55 AM 43.0 °F 36.8 °F 30.2 °F 61% 30.13 in 10.0 mi West 11.5 mph - N/A   Clear
9:15 AM 43.9 °F 37.2 °F 29.5 °F 57% 30.13 in 10.0 mi West 13.8 mph - N/A   Clear
9:35 AM 45.1 °F 38.8 °F 28.9 °F 53% 30.13 in 10.0 mi West 13.8 mph 23.0 mph N/A   Clear
9:55 AM 46.4 °F 39.8 °F 28.6 °F 50% 30.13 in 10.0 mi West 16.1 mph 21.9 mph N/A   Clear
10:15 AM 48.2 °F - 28.2 °F 46% 30.12 in 10.0 mi West 11.5 mph 21.9 mph N/A   Clear
10:35 AM 48.2 °F - 27.3 °F 44% 30.11 in 10.0 mi West 16.1 mph 20.7 mph N/A   Clear
10:55 AM 47.7 °F - 26.6 °F 44% 30.11 in 10.0 mi West 13.8 mph 21.9 mph N/A   Clear
11:35 AM 51.6 °F - 24.3 °F 34% 30.10 in 10.0 mi WNW 13.8 mph 18.4 mph N/A   Clear
11:55 AM 52.0 °F - 23.7 °F 33% 30.10 in 10.0 mi West 17.3 mph - N/A   Clear
12:15 PM 51.3 °F - 23.4 °F 34% 30.08 in 10.0 mi West 17.3 mph - N/A   Clear
12:35 PM 50.2 °F - 20.8 °F 32% 30.08 in 10.0 mi WNW 16.1 mph - N/A   Clear
12:55 PM 49.8 °F - 18.9 °F 29% 30.08 in 10.0 mi WNW 17.3 mph 21.9 mph N/A   Clear
1:35 PM 49.5 °F - 18.7 °F 30% 30.06 in 10.0 mi West 16.1 mph - N/A   Clear
1:55 PM 49.3 °F - 20.1 °F 32% 30.06 in 10.0 mi WSW 11.5 mph - N/A   Clear
2:15 PM 49.3 °F - 18.0 °F 29% 30.06 in 10.0 mi West 18.4 mph 21.9 mph N/A   Clear
2:35 PM 49.6 °F - 18.5 °F 29% 30.05 in 10.0 mi West 12.7 mph - N/A   Clear
2:55 PM 49.6 °F - 17.8 °F 28% 30.05 in 10.0 mi West 15.0 mph 23.0 mph N/A   Clear
3:15 PM 48.9 °F - 18.1 °F 30% 30.07 in 10.0 mi West 19.6 mph - N/A   Clear
3:35 PM 47.8 °F - 18.1 °F 31% 30.07 in 10.0 mi West 15.0 mph 24.2 mph N/A   Clear
3:55 PM 47.5 °F - 18.3 °F 31% 30.07 in 10.0 mi West 17.3 mph 20.7 mph N/A   Clear
4:15 PM 47.3 °F - 18.1 °F 31% 30.05 in 10.0 mi West 15.0 mph - N/A   Clear
4:35 PM 46.9 °F - 19.6 °F 34% 30.05 in 10.0 mi West 16.1 mph - N/A   Clear
4:55 PM 46.8 °F - 20.3 °F 35% 30.06 in 10.0 mi West 16.1 mph 20.7 mph N/A   Clear
5:15 PM 46.6 °F - 19.6 °F 34% 30.05 in 10.0 mi WSW 11.5 mph 19.6 mph N/A   Clear
5:35 PM 46.6 °F - 19.9 °F 35% 30.05 in 10.0 mi West 11.5 mph - N/A   Clear
5:55 PM 46.6 °F - 20.1 °F 35% 30.05 in 10.0 mi WSW 9.2 mph 16.1 mph N/A   Clear
6:15 PM 46.9 °F - 20.1 °F 35% 30.05 in 10.0 mi WSW 10.4 mph - N/A   Clear
6:35 PM 45.5 °F 41.8 °F 19.9 °F 36% 30.05 in 10.0 mi WSW 6.9 mph - N/A   Clear
6:55 PM 44.8 °F 39.9 °F 19.9 °F 37% 30.05 in 10.0 mi WSW 9.2 mph - N/A   Clear
7:15 PM 45.0 °F 41.8 °F 19.6 °F 36% 30.05 in 10.0 mi WSW 5.8 mph - N/A   Clear
7:35 PM 43.9 °F 40.5 °F 20.3 °F 39% 30.05 in 10.0 mi WSW 5.8 mph - N/A   Unknown
7:55 PM 43.0 °F 39.5 °F 20.8 °F 41% 30.05 in 10.0 mi WSW 5.8 mph - N/A   Clear
8:15 PM 40.5 °F 36.5 °F 21.2 °F 46% 30.05 in 10.0 mi West 5.8 mph - N/A   Clear
8:35 PM 40.1 °F 36.9 °F 21.2 °F 47% 30.05 in 10.0 mi WSW 4.6 mph - N/A   Clear
8:55 PM 39.6 °F 35.4 °F 21.0 °F 48% 30.05 in 10.0 mi West 5.8 mph - N/A   Clear
9:15 PM 39.6 °F 36.3 °F 21.2 °F 48% 30.06 in 10.0 mi West 4.6 mph - N/A   Clear
9:35 PM 39.0 °F 35.7 °F 21.7 °F 50% 30.05 in 10.0 mi West 4.6 mph - N/A   Scattered Clouds
9:55 PM 39.2 °F 35.9 °F 21.9 °F 50% 30.06 in 10.0 mi West 4.6 mph - N/A   Mostly Cloudy
10:35 PM 38.5 °F 33.4 °F 23.9 °F 56% 30.06 in 10.0 mi West 6.9 mph - N/A   Mostly Cloudy
10:55 PM 37.8 °F 32.5 °F 24.3 °F 58% 30.06 in 10.0 mi West 6.9 mph - N/A   Mostly Cloudy
11:15 PM 37.0 °F 31.6 °F 24.3 °F 60% 30.06 in 10.0 mi West 6.9 mph - N/A   Scattered Clouds
11:35 PM 36.7 °F 31.2 °F 24.8 °F 62% 30.06 in 10.0 mi West 6.9 mph - N/A   Mostly Cloudy
11:55 PM 37.6 °F 33.1 °F 25.5 °F 62% 30.06 in 10.0 mi West 5.8 mph - N/A   Overcast